Time,TemperatureF,DewpointF,PressureIn,WindDirection,WindDirectionDegrees,WindSpeedMPH,WindSpeedGustMPH,Humidity,HourlyPrecipIn,Conditions,Clouds,dailyrainin,SoftwareType,DateUTC
2013-03-15 00:00:00,30.0,15.3,30.00,NW,310,6.9,6.9,54,0.00,CLR,SKC,0.00,WeatherDisplay:10.37,2013-03-15 04:00:00,
2013-03-15 00:05:00,29.9,15.3,30.00,NW,306,14.9,14.9,54,0.00,CLR,SKC,0.00,WeatherDisplay:10.37,2013-03-15 04:05:00,
2013-03-15 00:10:00,30.0,15.3,30.00,NNW,343,10.3,10.3,54,0.00,CLR,SKC,0.00,WeatherDisplay:10.37,2013-03-15 04:10:00,
2013-03-15 00:15:00,30.0,15.3,30.00,NE,38,11.5,11.5,54,0.00,CLR,SKC,0.00,WeatherDisplay:10.37,2013-03-15 04:15:00,
2013-03-15 00:20:00,29.9,15.3,30.00,NNE,13,10.3,10.3,54,0.00,CLR,SKC,0.00,WeatherDisplay:10.37,2013-03-15 04:20:00,
2013-03-15 00:25:00,29.8,15.6,30.00,NE,34,9.2,9.2,55,0.00,CLR,SKC,0.00,WeatherDisplay:10.37,2013-03-15 04:25:00,
2013-03-15 00:30:00,29.7,15.5,30.00,NE,41,17.3,17.3,55,0.00,CLR,SKC,0.00,WeatherDisplay:10.37,2013-03-15 04:30:00,
2013-03-15 00:35:00,29.6,15.4,30.00,NNE,30,11.5,11.5,55,0.00,CLR,SKC,0.00,WeatherDisplay:10.37,2013-03-15 04:35:00,
2013-03-15 00:40:00,29.6,15.8,30.00,NE,47,5.8,5.8,56,0.00,CLR,SKC,0.00,WeatherDisplay:10.37,2013-03-15 04:40:00,
2013-03-15 00:45:00,29.4,15.6,30.00,NE,46,10.3,10.3,56,0.00,CLR,SKC,0.00,WeatherDisplay:10.37,2013-03-15 04:45:00,
2013-03-15 00:50:00,29.3,15.5,30.00,NNE,23,6.9,6.9,56,0.00,CLR,SKC,0.00,WeatherDisplay:10.37,2013-03-15 04:50:00,
2013-03-15 00:55:00,29.2,15.8,30.00,NNE,15,6.9,6.9,57,0.00,CLR,SKC,0.00,WeatherDisplay:10.37,2013-03-15 04:55:00,
2013-03-15 01:00:00,29.1,15.7,30.00,NNE,26,10.3,10.3,57,0.00,CLR,SKC,0.00,WeatherDisplay:10.37,2013-03-15 05:00:00,
2013-03-15 01:05:00,29.0,15.7,30.00,NE,49,4.6,4.6,57,0.00,CLR,SKC,0.00,WeatherDisplay:10.37,2013-03-15 05:05:00,
2013-03-15 01:10:00,29.0,15.7,30.00,NNE,33,6.9,6.9,57,0.00,CLR,SKC,0.00,WeatherDisplay:10.37,2013-03-15 05:10:00,
2013-03-15 01:15:00,28.9,15.6,29.99,NNW,348,4.6,4.6,57,0.00,CLR,SKC,0.00,WeatherDisplay:10.37,2013-03-15 05:15:00,
2013-03-15 01:20:00,28.9,16.0,30.00,North,360,0.0,0.0,58,0.00,CLR,SKC,0.00,WeatherDisplay:10.37,2013-03-15 05:20:00,
2013-03-15 01:25:00,28.8,15.9,30.00,North,355,5.8,5.8,58,0.00,CLR,SKC,0.00,WeatherDisplay:10.37,2013-03-15 05:25:00,
2013-03-15 01:30:00,28.7,15.8,29.99,North,11,1.1,1.1,58,0.00,CLR,SKC,0.00,WeatherDisplay:10.37,2013-03-15 05:30:00,
2013-03-15 01:35:00,28.6,16.1,30.00,NNE,24,2.3,2.3,59,0.00,CLR,SKC,0.00,WeatherDisplay:10.37,2013-03-15 05:35:00,
2013-03-15 01:40:00,28.6,16.1,30.00,NNE,31,2.3,2.3,59,0.00,CLR,SKC,0.00,WeatherDisplay:10.37,2013-03-15 05:40:00,
2013-03-15 01:45:00,28.6,16.1,30.00,NE,40,4.0,4.0,59,0.00,CLR,SKC,0.00,WeatherDisplay:10.37,2013-03-15 05:45:00,
2013-03-15 01:50:00,28.5,16.4,30.00,NE,39,4.6,4.6,60,0.00,CLR,SKC,0.00,WeatherDisplay:10.37,2013-03-15 05:50:00,
2013-03-15 01:55:00,28.4,16.3,30.00,NE,39,0.0,0.0,60,0.00,CLR,SKC,0.00,WeatherDisplay:10.37,2013-03-15 05:55:00,
2013-03-15 02:00:00,28.3,16.2,30.00,NE,39,4.6,4.6,60,0.00,CLR,SKC,0.00,WeatherDisplay:10.37,2013-03-15 06:00:00,
2013-03-15 02:05:00,28.3,16.6,30.00,NE,40,0.0,0.0,61,0.00,CLR,SKC,0.00,WeatherDisplay:10.37,2013-03-15 06:05:00,
2013-03-15 02:10:00,28.2,16.5,30.00,East,90,3.4,3.4,61,0.00,CLR,SKC,0.00,WeatherDisplay:10.37,2013-03-15 06:10:00,
2013-03-15 02:15:00,28.1,16.7,30.00,NE,34,0.0,0.0,62,0.00,CLR,SKC,0.00,WeatherDisplay:10.37,2013-03-15 06:15:00,
2013-03-15 02:20:00,28.0,17.0,30.00,NE,44,2.3,2.3,63,0.00,CLR,SKC,0.00,WeatherDisplay:10.37,2013-03-15 06:20:00,
2013-03-15 02:25:00,27.9,16.9,30.00,NNE,28,4.6,4.6,63,0.00,CLR,SKC,0.00,WeatherDisplay:10.37,2013-03-15 06:25:00,
2013-03-15 02:30:00,27.9,17.3,29.99,NNW,340,2.3,2.3,64,0.00,CLR,SKC,0.00,WeatherDisplay:10.37,2013-03-15 06:30:00,
2013-03-15 02:35:00,27.9,17.3,29.99,NNE,33,3.4,3.4,64,0.00,CLR,SKC,0.00,WeatherDisplay:10.37,2013-03-15 06:35:00,
2013-03-15 02:40:00,27.9,17.6,29.99,NNE,32,0.0,0.0,65,0.00,CLR,SKC,0.00,WeatherDisplay:10.37,2013-03-15 06:40:00,
2013-03-15 02:45:00,27.9,17.6,29.99,NE,46,3.4,3.4,65,0.00,CLR,SKC,0.00,WeatherDisplay:10.37,2013-03-15 06:45:00,
2013-03-15 02:50:00,28.0,17.7,29.99,NE,38,0.0,0.0,65,0.00,CLR,SKC,0.00,WeatherDisplay:10.37,2013-03-15 06:50:00,
2013-03-15 02:55:00,27.9,17.6,29.99,NNW,342,2.3,2.3,65,0.00,CLR,SKC,0.00,WeatherDisplay:10.37,2013-03-15 06:55:00,
2013-03-15 03:00:00,27.9,18.0,29.99,NE,44,5.0,5.0,66,0.00,CLR,SKC,0.00,WeatherDisplay:10.37,2013-03-15 07:00:00,
2013-03-15 03:05:00,27.9,17.6,29.99,NE,42,4.0,4.0,65,0.00,CLR,SKC,0.00,WeatherDisplay:10.37,2013-03-15 07:05:00,
2013-03-15 03:10:00,27.9,17.6,29.98,NNE,32,0.0,0.0,65,0.00,CLR,SKC,0.00,WeatherDisplay:10.37,2013-03-15 07:10:00,
2013-03-15 03:15:00,27.9,18.0,29.98,NNE,32,1.1,0.0,66,0.00,CLR,SKC,0.00,WeatherDisplay:10.37,2013-03-15 07:15:00,
2013-03-15 03:20:00,27.8,17.9,29.98,NE,40,3.4,3.4,66,0.00,CLR,SKC,0.00,WeatherDisplay:10.37,2013-03-15 07:20:00,
2013-03-15 03:25:00,27.9,18.0,29.98,North,5,2.3,2.3,66,0.00,CLR,SKC,0.00,WeatherDisplay:10.37,2013-03-15 07:25:00,
2013-03-15 03:30:00,28.0,17.7,29.98,North,355,2.3,2.3,65,0.00,CLR,SKC,0.00,WeatherDisplay:10.37,2013-03-15 07:30:00,
2013-03-15 03:35:00,28.0,17.7,29.98,North,355,0.0,0.0,65,0.00,CLR,SKC,0.00,WeatherDisplay:10.37,2013-03-15 07:35:00,
2013-03-15 03:40:00,27.9,17.6,29.98,North,355,0.0,0.0,65,0.00,CLR,SKC,0.00,WeatherDisplay:10.37,2013-03-15 07:40:00,
2013-03-15 03:45:00,27.8,17.9,29.97,North,355,0.0,0.0,66,0.00,CLR,SKC,0.00,WeatherDisplay:10.37,2013-03-15 07:45:00,
2013-03-15 03:50:00,27.6,17.7,29.97,North,355,0.0,0.0,66,0.00,CLR,SKC,0.00,WeatherDisplay:10.37,2013-03-15 07:50:00,
2013-03-15 03:55:00,27.4,17.5,29.97,North,355,0.0,0.0,66,0.00,CLR,SKC,0.00,WeatherDisplay:10.37,2013-03-15 07:55:00,
2013-03-15 04:00:00,27.1,17.2,29.97,North,355,0.0,0.0,66,0.00,CLR,SKC,0.00,WeatherDisplay:10.37,2013-03-15 08:00:00,
2013-03-15 04:05:00,26.9,17.4,29.97,North,355,0.0,0.0,67,0.00,CLR,SKC,0.00,WeatherDisplay:10.37,2013-03-15 08:05:00,
2013-03-15 04:10:00,26.6,17.5,29.96,North,355,0.0,0.0,68,0.00,CLR,SKC,0.00,WeatherDisplay:10.37,2013-03-15 08:10:00,
2013-03-15 04:15:00,26.3,17.2,29.97,North,355,0.0,0.0,68,0.00,CLR,SKC,0.00,WeatherDisplay:10.37,2013-03-15 08:15:00,
2013-03-15 04:20:00,26.0,17.6,29.96,North,355,0.0,0.0,70,0.00,CLR,SKC,0.00,WeatherDisplay:10.37,2013-03-15 08:20:00,
2013-03-15 04:25:00,25.6,17.2,29.96,North,355,0.0,0.0,70,0.00,CLR,SKC,0.00,WeatherDisplay:10.37,2013-03-15 08:25:00,
2013-03-15 04:30:00,25.3,17.2,29.96,North,355,0.0,0.0,71,0.00,CLR,SKC,0.00,WeatherDisplay:10.37,2013-03-15 08:30:00,
2013-03-15 04:35:00,25.1,17.0,29.96,North,355,0.0,0.0,71,0.00,CLR,SKC,0.00,WeatherDisplay:10.37,2013-03-15 08:35:00,
2013-03-15 04:40:00,24.8,17.1,29.96,North,355,0.0,0.0,72,0.00,CLR,SKC,0.00,WeatherDisplay:10.37,2013-03-15 08:40:00,
2013-03-15 04:45:00,24.6,17.2,29.96,North,355,0.0,0.0,73,0.00,CLR,SKC,0.00,WeatherDisplay:10.37,2013-03-15 08:45:00,
2013-03-15 04:50:00,24.4,17.0,29.96,North,355,0.0,0.0,73,0.00,CLR,SKC,0.00,WeatherDisplay:10.37,2013-03-15 08:50:00,
2013-03-15 04:55:00,24.2,17.1,29.96,North,355,0.0,0.0,74,0.00,CLR,SKC,0.00,WeatherDisplay:10.37,2013-03-15 08:55:00,
2013-03-15 05:00:00,24.0,17.2,29.96,North,355,0.0,0.0,75,0.00,CLR,SKC,0.00,WeatherDisplay:10.37,2013-03-15 09:00:00,
2013-03-15 05:05:00,23.8,17.0,29.96,North,355,0.0,0.0,75,0.00,CLR,SKC,0.00,WeatherDisplay:10.37,2013-03-15 09:05:00,
2013-03-15 05:10:00,23.7,16.9,29.95,North,355,0.0,0.0,75,0.00,CLR,SKC,0.00,WeatherDisplay:10.37,2013-03-15 09:10:00,
2013-03-15 05:15:00,23.5,16.7,29.95,North,355,0.0,0.0,75,0.00,CLR,SKC,0.00,WeatherDisplay:10.37,2013-03-15 09:15:00,
2013-03-15 05:20:00,23.3,16.9,29.95,North,355,0.0,0.0,76,0.00,CLR,SKC,0.00,WeatherDisplay:10.37,2013-03-15 09:20:00,
2013-03-15 05:25:00,23.2,17.1,29.95,North,355,0.0,0.0,77,0.00,CLR,SKC,0.00,WeatherDisplay:10.37,2013-03-15 09:25:00,
2013-03-15 05:30:00,23.1,17.0,29.95,North,355,0.0,0.0,77,0.00,CLR,SKC,0.00,WeatherDisplay:10.37,2013-03-15 09:30:00,
2013-03-15 05:35:00,23.0,16.9,29.94,North,355,0.0,0.0,77,0.00,CLR,SKC,0.00,WeatherDisplay:10.37,2013-03-15 09:35:00,
2013-03-15 05:40:00,23.0,17.2,29.94,North,355,0.0,0.0,78,0.00,CLR,SKC,0.00,WeatherDisplay:10.37,2013-03-15 09:40:00,
2013-03-15 05:45:00,23.0,16.9,29.94,North,355,0.0,0.0,77,0.00,CLR,SKC,0.00,WeatherDisplay:10.37,2013-03-15 09:45:00,
2013-03-15 05:50:00,23.0,17.2,29.94,North,355,0.0,0.0,78,0.00,CLR,SKC,0.00,WeatherDisplay:10.37,2013-03-15 09:50:00,
2013-03-15 05:55:00,23.0,17.2,29.94,North,355,0.0,0.0,78,0.00,CLR,SKC,0.00,WeatherDisplay:10.37,2013-03-15 09:55:00,
2013-03-15 06:00:00,23.0,17.2,29.94,North,355,0.0,0.0,78,0.00,CLR,SKC,0.00,WeatherDisplay:10.37,2013-03-15 10:00:00,
2013-03-15 06:05:00,23.0,17.2,29.94,North,355,0.0,0.0,78,0.00,CLR,SKC,0.00,WeatherDisplay:10.37,2013-03-15 10:05:00,
2013-03-15 06:10:00,22.9,17.1,29.95,North,355,0.0,0.0,78,0.00,CLR,SKC,0.00,WeatherDisplay:10.37,2013-03-15 10:10:00,
2013-03-15 06:15:00,22.7,17.2,29.95,North,355,0.0,0.0,79,0.00,CLR,SKC,0.00,WeatherDisplay:10.37,2013-03-15 10:15:00,
2013-03-15 06:20:00,22.6,17.1,29.95,North,355,0.0,0.0,79,0.00,CLR,SKC,0.00,WeatherDisplay:10.37,2013-03-15 10:20:00,
2013-03-15 06:25:00,22.5,16.7,29.95,North,355,0.0,0.0,78,0.00,CLR,SKC,0.00,WeatherDisplay:10.37,2013-03-15 10:25:00,
2013-03-15 06:30:00,22.6,16.8,29.95,North,355,0.0,0.0,78,0.00,CLR,SKC,0.00,WeatherDisplay:10.37,2013-03-15 10:30:00,
2013-03-15 06:35:00,22.6,16.8,29.95,North,355,0.0,0.0,78,0.00,CLR,SKC,0.00,WeatherDisplay:10.37,2013-03-15 10:35:00,
2013-03-15 06:40:00,22.6,17.1,29.95,North,355,0.0,0.0,79,0.00,CLR,SKC,0.00,WeatherDisplay:10.37,2013-03-15 10:40:00,
2013-03-15 06:45:00,22.6,17.1,29.94,North,355,0.0,0.0,79,0.00,CLR,SKC,0.00,WeatherDisplay:10.37,2013-03-15 10:45:00,
2013-03-15 06:50:00,22.4,16.9,29.94,North,355,0.0,0.0,79,0.00,CLR,SKC,0.00,WeatherDisplay:10.37,2013-03-15 10:50:00,
2013-03-15 06:55:00,22.3,16.8,29.94,North,355,0.0,0.0,79,0.00,CLR,SKC,0.00,WeatherDisplay:10.37,2013-03-15 10:55:00,
2013-03-15 07:00:00,22.2,16.7,29.94,North,355,0.0,0.0,79,0.00,CLR,SKC,0.00,WeatherDisplay:10.37,2013-03-15 11:00:00,
2013-03-15 07:05:00,22.2,17.0,29.93,North,355,0.0,0.0,80,0.00,CLR,SKC,0.00,WeatherDisplay:10.37,2013-03-15 11:05:00,
2013-03-15 07:10:00,22.2,17.0,29.93,North,355,0.0,0.0,80,0.00,CLR,SKC,0.00,WeatherDisplay:10.37,2013-03-15 11:10:00,
2013-03-15 07:15:00,22.2,17.3,29.93,North,355,0.0,0.0,81,0.00,CLR,SKC,0.00,WeatherDisplay:10.37,2013-03-15 11:15:00,
2013-03-15 07:20:00,22.3,17.6,29.93,North,355,0.0,0.0,82,0.00,CLR,SKC,0.00,WeatherDisplay:10.37,2013-03-15 11:20:00,
2013-03-15 07:25:00,22.6,18.2,29.93,North,355,0.0,0.0,83,0.00,CLR,SKC,0.00,WeatherDisplay:10.37,2013-03-15 11:25:00,
2013-03-15 07:30:00,22.9,18.8,29.93,North,355,0.0,0.0,84,0.00,CLR,SKC,0.00,WeatherDisplay:10.37,2013-03-15 11:30:00,
2013-03-15 07:35:00,23.2,19.1,29.93,North,355,0.0,0.0,84,0.00,CLR,SKC,0.00,WeatherDisplay:10.37,2013-03-15 11:35:00,
2013-03-15 07:40:00,23.5,19.7,29.93,North,355,0.0,0.0,85,0.00,CLR,SKC,0.00,WeatherDisplay:10.37,2013-03-15 11:40:00,
2013-03-15 07:45:00,23.8,19.9,29.93,North,355,0.0,0.0,85,0.00,CLR,SKC,0.00,WeatherDisplay:10.37,2013-03-15 11:45:00,
2013-03-15 07:50:00,24.1,20.0,29.92,North,355,0.0,0.0,84,0.00,CLR,SKC,0.00,WeatherDisplay:10.37,2013-03-15 11:50:00,
2013-03-15 07:55:00,24.3,20.2,29.92,North,355,0.0,0.0,84,0.00,CLR,SKC,0.00,WeatherDisplay:10.37,2013-03-15 11:55:00,
2013-03-15 08:00:00,24.7,20.6,29.92,North,355,0.0,0.0,84,0.00,CLR,SKC,0.00,WeatherDisplay:10.37,2013-03-15 12:00:00,
2013-03-15 08:05:00,25.0,20.6,29.92,North,355,0.0,0.0,83,0.00,CLR,SKC,0.00,WeatherDisplay:10.37,2013-03-15 12:05:00,
2013-03-15 08:10:00,25.5,21.1,29.92,North,355,1.1,0.0,83,0.00,CLR,SKC,0.00,WeatherDisplay:10.37,2013-03-15 12:10:00,
2013-03-15 08:15:00,26.0,21.3,29.92,North,355,0.0,0.0,82,0.00,CLR,SKC,0.00,WeatherDisplay:10.37,2013-03-15 12:15:00,
2013-03-15 08:20:00,26.4,21.4,29.91,North,355,0.0,0.0,81,0.00,CLR,SKC,0.00,WeatherDisplay:10.37,2013-03-15 12:20:00,
2013-03-15 08:25:00,26.8,21.5,29.91,North,355,0.0,0.0,80,0.00,CLR,SKC,0.00,WeatherDisplay:10.37,2013-03-15 12:25:00,
2013-03-15 08:30:00,27.1,21.5,29.91,North,355,0.0,0.0,79,0.00,CLR,SKC,0.00,WeatherDisplay:10.37,2013-03-15 12:30:00,
2013-03-15 08:35:00,27.5,21.5,29.91,North,355,0.0,0.0,78,0.00,CLR,SKC,0.00,WeatherDisplay:10.37,2013-03-15 12:35:00,
2013-03-15 08:40:00,28.0,21.7,29.91,North,355,0.0,0.0,77,0.00,CLR,SKC,0.00,WeatherDisplay:10.37,2013-03-15 12:40:00,
2013-03-15 08:45:00,28.5,21.9,29.91,North,355,0.0,0.0,76,0.00,CLR,SKC,0.00,WeatherDisplay:10.37,2013-03-15 12:45:00,
2013-03-15 08:50:00,29.0,21.7,29.91,North,355,0.0,0.0,74,0.00,CLR,SKC,0.00,WeatherDisplay:10.37,2013-03-15 12:50:00,
2013-03-15 08:55:00,29.7,22.1,29.91,North,355,1.1,0.0,73,0.00,CLR,SKC,0.00,WeatherDisplay:10.37,2013-03-15 12:55:00,
2013-03-15 09:00:00,30.3,22.7,29.90,North,355,0.0,0.0,73,0.00,CLR,SKC,0.00,WeatherDisplay:10.37,2013-03-15 13:00:00,
2013-03-15 09:05:00,31.0,22.7,29.90,North,355,0.0,0.0,71,0.00,CLR,SKC,0.00,WeatherDisplay:10.37,2013-03-15 13:05:00,
2013-03-15 09:10:00,31.6,22.9,29.90,North,355,0.0,0.0,70,0.00,CLR,SKC,0.00,WeatherDisplay:10.37,2013-03-15 13:10:00,
2013-03-15 09:15:00,32.3,23.6,29.90,North,355,0.0,0.0,70,0.00,CLR,SKC,0.00,WeatherDisplay:10.37,2013-03-15 13:15:00,
2013-03-15 09:20:00,32.9,23.5,29.89,North,355,0.0,0.0,68,0.00,CLR,SKC,0.00,WeatherDisplay:10.37,2013-03-15 13:20:00,
2013-03-15 09:25:00,33.9,24.1,29.89,North,355,0.0,0.0,67,0.00,CLR,SKC,0.00,WeatherDisplay:10.37,2013-03-15 13:25:00,
2013-03-15 09:30:00,34.7,24.5,29.89,North,355,1.1,0.0,66,0.00,CLR,SKC,0.00,WeatherDisplay:10.37,2013-03-15 13:30:00,
2013-03-15 09:35:00,35.2,24.2,29.88,SSE,168,4.6,4.6,64,0.00,CLR,SKC,0.00,WeatherDisplay:10.37,2013-03-15 13:35:00,
2013-03-15 09:40:00,35.3,24.0,29.89,NE,52,3.4,3.4,63,0.00,CLR,SKC,0.00,WeatherDisplay:10.37,2013-03-15 13:40:00,
2013-03-15 09:45:00,35.6,24.6,29.88,South,171,3.4,3.4,64,0.00,CLR,SKC,0.00,WeatherDisplay:10.37,2013-03-15 13:45:00,
2013-03-15 09:50:00,35.7,24.3,29.88,SSE,165,1.0,0.0,63,0.00,CLR,SKC,0.00,WeatherDisplay:10.37,2013-03-15 13:50:00,
2013-03-15 09:55:00,35.8,24.0,29.87,SSE,159,2.3,2.3,62,0.00,CLR,SKC,0.00,WeatherDisplay:10.37,2013-03-15 13:55:00,
2013-03-15 10:00:00,35.9,24.5,29.87,East,98,1.1,1.1,63,0.00,CLR,SKC,0.00,WeatherDisplay:10.37,2013-03-15 14:00:00,
2013-03-15 10:05:00,36.1,24.3,29.87,East,101,3.4,3.4,62,0.00,CLR,SKC,0.00,WeatherDisplay:10.37,2013-03-15 14:05:00,
2013-03-15 10:10:00,36.5,25.1,29.86,SE,132,2.3,2.3,63,0.00,CLR,SKC,0.00,WeatherDisplay:10.37,2013-03-15 14:10:00,
2013-03-15 10:15:00,37.2,25.4,29.86,WNW,298,5.8,5.8,62,0.00,CLR,SKC,0.00,WeatherDisplay:10.37,2013-03-15 14:15:00,
2013-03-15 10:20:00,37.7,24.6,29.86,NNE,32,9.2,9.2,59,0.00,CLR,SKC,0.00,WeatherDisplay:10.37,2013-03-15 14:20:00,
2013-03-15 10:25:00,37.9,25.2,29.85,NE,49,6.9,6.9,60,0.00,CLR,SKC,0.00,WeatherDisplay:10.37,2013-03-15 14:25:00,
2013-03-15 10:30:00,38.0,24.9,29.85,NE,53,3.4,3.4,59,0.00,CLR,SKC,0.00,WeatherDisplay:10.37,2013-03-15 14:30:00,
2013-03-15 10:35:00,38.1,24.2,29.85,NNE,13,8.1,8.1,57,0.00,CLR,SKC,0.00,WeatherDisplay:10.37,2013-03-15 14:35:00,
2013-03-15 10:40:00,38.3,24.8,29.84,SSE,150,5.0,5.0,58,0.00,CLR,SKC,0.00,WeatherDisplay:10.37,2013-03-15 14:40:00,
2013-03-15 10:45:00,38.3,24.4,29.84,NE,42,4.0,4.0,57,0.00,CLR,SKC,0.00,WeatherDisplay:10.37,2013-03-15 14:45:00,
2013-03-15 10:50:00,38.3,24.4,29.84,NNE,22,5.8,5.8,57,0.00,CLR,SKC,0.00,WeatherDisplay:10.37,2013-03-15 14:50:00,
2013-03-15 10:55:00,38.3,24.8,29.84,NNE,33,2.0,2.0,58,0.00,CLR,SKC,0.00,WeatherDisplay:10.37,2013-03-15 14:55:00,
2013-03-15 11:00:00,38.4,24.5,29.83,NNE,30,4.0,4.0,57,0.00,CLR,SKC,0.00,WeatherDisplay:10.37,2013-03-15 15:00:00,
2013-03-15 11:05:00,38.6,24.7,29.83,NNE,26,11.5,11.5,57,0.00,CLR,SKC,0.00,WeatherDisplay:10.37,2013-03-15 15:05:00,
2013-03-15 11:10:00,38.8,24.0,29.83,North,5,9.2,9.2,55,0.00,CLR,SKC,0.00,WeatherDisplay:10.37,2013-03-15 15:10:00,
2013-03-15 11:15:00,39.0,24.6,29.83,NNE,28,6.0,6.0,56,0.00,CLR,SKC,0.00,WeatherDisplay:10.37,2013-03-15 15:15:00,
2013-03-15 11:20:00,39.2,24.4,29.83,NNE,25,3.4,3.4,55,0.00,CLR,SKC,0.00,WeatherDisplay:10.37,2013-03-15 15:20:00,
2013-03-15 11:25:00,39.5,24.7,29.82,NNE,32,4.6,4.6,55,0.00,CLR,SKC,0.00,WeatherDisplay:10.37,2013-03-15 15:25:00,
2013-03-15 11:30:00,39.8,24.9,29.82,ENE,60,5.8,5.8,55,0.00,CLR,SKC,0.00,WeatherDisplay:10.37,2013-03-15 15:30:00,
2013-03-15 11:35:00,40.0,24.7,29.82,NE,42,6.9,6.9,54,0.00,CLR,SKC,0.00,WeatherDisplay:10.37,2013-03-15 15:35:00,
2013-03-15 11:40:00,40.2,24.4,29.82,NE,48,5.8,5.8,53,0.00,CLR,SKC,0.00,WeatherDisplay:10.37,2013-03-15 15:40:00,
2013-03-15 11:45:00,40.1,24.8,29.82,NE,37,4.6,4.6,54,0.00,CLR,SKC,0.00,WeatherDisplay:10.37,2013-03-15 15:45:00,
2013-03-15 11:50:00,40.0,24.7,29.81,NE,39,5.8,5.8,54,0.00,CLR,SKC,0.00,WeatherDisplay:10.37,2013-03-15 15:50:00,
2013-03-15 11:55:00,40.1,24.3,29.81,ENE,65,5.8,5.8,53,0.00,CLR,SKC,0.00,WeatherDisplay:10.37,2013-03-15 15:55:00,
2013-03-15 12:00:00,40.2,24.9,29.81,NE,40,8.1,8.1,54,0.00,CLR,SKC,0.00,WeatherDisplay:10.37,2013-03-15 16:00:00,
2013-03-15 12:05:00,40.3,24.1,29.81,NE,37,6.9,6.9,52,0.00,CLR,SKC,0.00,WeatherDisplay:10.37,2013-03-15 16:05:00,
2013-03-15 12:10:00,40.4,24.6,29.80,NE,47,9.0,9.0,53,0.00,CLR,SKC,0.00,WeatherDisplay:10.37,2013-03-15 16:10:00,
2013-03-15 12:15:00,40.7,24.4,29.80,NE,52,10.3,10.3,52,0.00,CLR,SKC,0.00,WeatherDisplay:10.37,2013-03-15 16:15:00,
2013-03-15 12:20:00,41.0,25.2,29.80,NE,38,8.1,8.1,53,0.00,CLR,SKC,0.00,WeatherDisplay:10.37,2013-03-15 16:20:00,
2013-03-15 12:25:00,41.5,25.6,29.80,NE,42,9.2,9.2,53,0.00,CLR,SKC,0.00,WeatherDisplay:10.37,2013-03-15 16:25:00,
2013-03-15 12:30:00,42.0,26.5,29.80,ENE,57,5.8,5.8,54,0.00,CLR,SKC,0.00,WeatherDisplay:10.37,2013-03-15 16:30:00,
2013-03-15 12:35:00,42.5,26.6,29.79,ENE,57,8.1,8.1,53,0.00,CLR,SKC,0.00,WeatherDisplay:10.37,2013-03-15 16:35:00,
2013-03-15 12:40:00,42.8,26.8,29.79,North,11,5.0,5.0,53,0.00,CLR,SKC,0.00,WeatherDisplay:10.37,2013-03-15 16:40:00,
2013-03-15 12:45:00,43.1,26.7,29.79,NNW,341,12.6,12.6,52,0.00,CLR,SKC,0.00,WeatherDisplay:10.37,2013-03-15 16:45:00,
2013-03-15 12:50:00,43.6,27.1,29.78,NE,49,13.8,13.8,52,0.00,CLR,SKC,0.00,WeatherDisplay:10.37,2013-03-15 16:50:00,
2013-03-15 12:55:00,44.3,28.2,29.78,North,360,9.0,9.0,53,0.00,CLR,SKC,0.00,WeatherDisplay:10.37,2013-03-15 16:55:00,
2013-03-15 13:00:00,44.6,28.0,29.78,NE,55,8.1,8.1,52,0.00,CLR,SKC,0.00,WeatherDisplay:10.37,2013-03-15 17:00:00,
2013-03-15 13:05:00,44.5,27.5,29.78,NNE,14,8.1,8.1,51,0.00,CLR,SKC,0.00,WeatherDisplay:10.37,2013-03-15 17:05:00,
2013-03-15 13:10:00,44.3,26.8,29.77,NNE,30,5.8,5.8,50,0.00,CLR,SKC,0.00,WeatherDisplay:10.37,2013-03-15 17:10:00,
2013-03-15 13:15:00,44.3,27.3,29.77,NNE,15,4.6,4.6,51,0.00,CLR,SKC,0.00,WeatherDisplay:10.37,2013-03-15 17:15:00,
2013-03-15 13:20:00,44.3,27.8,29.76,NE,51,14.0,14.0,52,0.00,CLR,SKC,0.00,WeatherDisplay:10.37,2013-03-15 17:20:00,
2013-03-15 13:25:00,44.4,27.9,29.76,ENE,71,6.9,6.9,52,0.00,CLR,SKC,0.00,WeatherDisplay:10.37,2013-03-15 17:25:00,
2013-03-15 13:30:00,44.6,28.0,29.76,NNE,17,11.5,11.5,52,0.00,CLR,SKC,0.00,WeatherDisplay:10.37,2013-03-15 17:30:00,
2013-03-15 13:35:00,44.7,28.6,29.75,East,83,9.2,9.2,53,0.00,CLR,SKC,0.00,WeatherDisplay:10.37,2013-03-15 17:35:00,
2013-03-15 13:40:00,44.7,27.7,29.75,ENE,65,10.3,10.3,51,0.00,CLR,SKC,0.00,WeatherDisplay:10.37,2013-03-15 17:40:00,
2013-03-15 13:45:00,44.6,27.6,29.75,NE,47,3.4,3.4,51,0.00,CLR,SKC,0.00,WeatherDisplay:10.37,2013-03-15 17:45:00,
2013-03-15 13:50:00,44.4,27.4,29.75,SSW,202,10.3,10.3,51,0.00,CLR,SKC,0.00,WeatherDisplay:10.37,2013-03-15 17:50:00,
2013-03-15 13:55:00,44.3,28.2,29.75,NE,38,7.0,7.0,53,0.00,CLR,SKC,0.00,WeatherDisplay:10.37,2013-03-15 17:55:00,
2013-03-15 14:00:00,44.3,28.2,29.74,SE,137,6.0,6.0,53,0.00,CLR,SKC,0.00,WeatherDisplay:10.37,2013-03-15 18:00:00,
2013-03-15 14:05:00,44.3,28.2,29.74,NE,51,9.2,9.2,53,0.00,CLR,SKC,0.00,WeatherDisplay:10.37,2013-03-15 18:05:00,
2013-03-15 14:10:00,44.4,28.3,29.74,NNE,32,5.8,5.8,53,0.00,CLR,SKC,0.00,WeatherDisplay:10.37,2013-03-15 18:10:00,
2013-03-15 14:15:00,44.4,28.3,29.74,NE,44,5.8,5.8,53,0.00,CLR,SKC,0.00,WeatherDisplay:10.37,2013-03-15 18:15:00,
2013-03-15 14:20:00,44.4,28.8,29.73,NE,36,3.4,3.4,54,0.00,CLR,SKC,0.00,WeatherDisplay:10.37,2013-03-15 18:20:00,
2013-03-15 14:25:00,44.4,28.8,29.73,North,360,4.0,4.0,54,0.00,CLR,SKC,0.00,WeatherDisplay:10.37,2013-03-15 18:25:00,
2013-03-15 14:30:00,44.4,29.2,29.73,NE,39,3.4,3.4,55,0.00,CLR,SKC,0.00,WeatherDisplay:10.37,2013-03-15 18:30:00,
2013-03-15 14:35:00,44.5,28.9,29.72,NE,39,4.6,4.6,54,0.00,CLR,SKC,0.00,WeatherDisplay:10.37,2013-03-15 18:35:00,
2013-03-15 14:40:00,44.6,29.4,29.72,NNE,30,3.4,3.4,55,0.00,CLR,SKC,0.00,WeatherDisplay:10.37,2013-03-15 18:40:00,
2013-03-15 14:45:00,44.8,29.6,29.71,NNW,347,5.0,5.0,55,0.00,CLR,SKC,0.00,WeatherDisplay:10.37,2013-03-15 18:45:00,
2013-03-15 14:50:00,45.0,29.8,29.71,NE,40,6.9,6.9,55,0.00,CLR,SKC,0.00,WeatherDisplay:10.37,2013-03-15 18:50:00,
2013-03-15 14:55:00,45.1,29.9,29.71,North,10,3.4,3.4,55,0.00,CLR,SKC,0.00,WeatherDisplay:10.37,2013-03-15 18:55:00,
2013-03-15 15:00:00,45.2,30.0,29.71,NNE,13,3.4,3.4,55,0.00,CLR,SKC,0.00,WeatherDisplay:10.37,2013-03-15 19:00:00,
2013-03-15 15:05:00,45.4,30.6,29.70,NNE,19,3.4,3.4,56,0.00,CLR,SKC,0.00,WeatherDisplay:10.37,2013-03-15 19:05:00,
2013-03-15 15:10:00,45.5,30.3,29.70,NE,39,5.8,5.8,55,0.00,CLR,SKC,0.00,WeatherDisplay:10.37,2013-03-15 19:10:00,
2013-03-15 15:15:00,45.8,30.5,29.70,NNE,27,0.0,0.0,55,0.00,CLR,SKC,0.00,WeatherDisplay:10.37,2013-03-15 19:15:00,
2013-03-15 15:20:00,45.9,31.1,29.70,NE,36,4.0,4.0,56,0.00,CLR,SKC,0.00,WeatherDisplay:10.37,2013-03-15 19:20:00,
2013-03-15 15:25:00,46.0,30.7,29.70,NNE,33,3.4,3.4,55,0.00,CLR,SKC,0.00,WeatherDisplay:10.37,2013-03-15 19:25:00,
2013-03-15 15:30:00,46.1,30.8,29.70,ESE,113,3.4,3.4,55,0.00,CLR,SKC,0.00,WeatherDisplay:10.37,2013-03-15 19:30:00,
2013-03-15 15:35:00,46.3,31.0,29.70,NE,37,11.5,11.5,55,0.00,CLR,SKC,0.00,WeatherDisplay:10.37,2013-03-15 19:35:00,
2013-03-15 15:40:00,46.5,30.7,29.70,NNE,28,5.8,5.8,54,0.00,CLR,SKC,0.00,WeatherDisplay:10.37,2013-03-15 19:40:00,
2013-03-15 15:45:00,46.7,31.4,29.69,NE,42,6.0,6.0,55,0.00,CLR,SKC,0.00,WeatherDisplay:10.37,2013-03-15 19:45:00,
2013-03-15 15:50:00,46.9,31.1,29.69,NNE,27,8.1,8.1,54,0.00,CLR,SKC,0.00,WeatherDisplay:10.37,2013-03-15 19:50:00,
2013-03-15 15:55:00,47.1,31.3,29.69,NE,34,10.3,10.3,54,0.00,CLR,SKC,0.00,WeatherDisplay:10.37,2013-03-15 19:55:00,
2013-03-15 16:00:00,47.3,31.0,29.69,WNW,286,5.8,5.8,53,0.00,CLR,SKC,0.00,WeatherDisplay:10.37,2013-03-15 20:00:00,
2013-03-15 16:05:00,47.5,31.2,29.69,North,5,8.0,8.0,53,0.00,CLR,SKC,0.00,WeatherDisplay:10.37,2013-03-15 20:05:00,
2013-03-15 16:10:00,47.7,31.4,29.69,NNE,26,5.8,5.8,53,0.00,CLR,SKC,0.00,WeatherDisplay:10.37,2013-03-15 20:10:00,
2013-03-15 16:15:00,47.9,31.6,29.69,NNE,17,11.5,11.5,53,0.00,CLR,SKC,0.00,WeatherDisplay:10.37,2013-03-15 20:15:00,
2013-03-15 16:20:00,48.1,31.8,29.69,NE,37,8.1,8.1,53,0.00,CLR,SKC,0.00,WeatherDisplay:10.37,2013-03-15 20:20:00,
2013-03-15 16:25:00,48.4,32.0,29.68,NNE,25,8.1,8.1,53,0.00,CLR,SKC,0.00,WeatherDisplay:10.37,2013-03-15 20:25:00,
2013-03-15 16:30:00,48.6,31.8,29.69,NNE,17,12.6,12.6,52,0.00,CLR,SKC,0.00,WeatherDisplay:10.37,2013-03-15 20:30:00,
2013-03-15 16:35:00,48.7,32.3,29.68,NNE,32,11.5,11.5,53,0.00,CLR,SKC,0.00,WeatherDisplay:10.37,2013-03-15 20:35:00,
2013-03-15 16:40:00,48.6,31.8,29.69,NE,40,8.1,8.1,52,0.00,CLR,SKC,0.00,WeatherDisplay:10.37,2013-03-15 20:40:00,
2013-03-15 16:45:00,48.4,32.0,29.69,North,355,9.2,9.2,53,0.00,CLR,SKC,0.00,WeatherDisplay:10.37,2013-03-15 20:45:00,
2013-03-15 16:50:00,48.2,31.9,29.69,NE,38,13.0,13.0,53,0.00,CLR,SKC,0.00,WeatherDisplay:10.37,2013-03-15 20:50:00,
2013-03-15 16:55:00,48.0,31.7,29.68,NE,35,18.4,18.4,53,0.00,CLR,SKC,0.00,WeatherDisplay:10.37,2013-03-15 20:55:00,
2013-03-15 17:00:00,47.8,31.5,29.69,NNE,29,12.6,12.6,53,0.00,CLR,SKC,0.00,WeatherDisplay:10.37,2013-03-15 21:00:00,
2013-03-15 17:05:00,47.7,31.9,29.68,NE,38,4.6,4.6,54,0.00,CLR,SKC,0.00,WeatherDisplay:10.37,2013-03-15 21:05:00,
2013-03-15 17:10:00,47.7,32.3,29.69,NE,48,11.0,11.0,55,0.00,CLR,SKC,0.00,WeatherDisplay:10.37,2013-03-15 21:10:00,
2013-03-15 17:15:00,47.6,31.8,29.69,NE,37,11.5,11.5,54,0.00,CLR,SKC,0.00,WeatherDisplay:10.37,2013-03-15 21:15:00,
2013-03-15 17:20:00,47.6,32.2,29.69,NNE,30,10.3,10.3,55,0.00,CLR,SKC,0.00,WeatherDisplay:10.37,2013-03-15 21:20:00,
2013-03-15 17:25:00,47.5,32.1,29.69,NE,39,14.9,14.9,55,0.00,CLR,SKC,0.00,WeatherDisplay:10.37,2013-03-15 21:25:00,
2013-03-15 17:30:00,47.4,32.0,29.69,NNW,342,11.5,11.5,55,0.00,CLR,SKC,0.00,WeatherDisplay:10.37,2013-03-15 21:30:00,
2013-03-15 17:35:00,47.3,31.9,29.69,NE,51,8.1,8.1,55,0.00,CLR,SKC,0.00,WeatherDisplay:10.37,2013-03-15 21:35:00,
2013-03-15 17:40:00,47.3,31.9,29.69,NE,46,10.3,10.3,55,0.00,CLR,SKC,0.00,WeatherDisplay:10.37,2013-03-15 21:40:00,
2013-03-15 17:45:00,47.2,32.3,29.69,NNW,347,5.0,5.0,56,0.00,CLR,SKC,0.00,WeatherDisplay:10.37,2013-03-15 21:45:00,
2013-03-15 17:50:00,47.2,32.3,29.69,NE,39,12.6,12.6,56,0.00,CLR,SKC,0.00,WeatherDisplay:10.37,2013-03-15 21:50:00,
2013-03-15 17:55:00,47.1,32.2,29.69,NNE,32,5.8,5.8,56,0.00,CLR,SKC,0.00,WeatherDisplay:10.37,2013-03-15 21:55:00,
2013-03-15 18:00:00,47.0,32.1,29.69,NE,37,4.6,4.6,56,0.00,CLR,SKC,0.00,WeatherDisplay:10.37,2013-03-15 22:00:00,
2013-03-15 18:05:00,47.0,32.1,29.69,NNE,28,6.9,6.9,56,0.00,CLR,SKC,0.00,WeatherDisplay:10.37,2013-03-15 22:05:00,
2013-03-15 18:10:00,47.0,32.1,29.69,NNE,13,13.8,13.8,56,0.00,CLR,SKC,0.00,WeatherDisplay:10.37,2013-03-15 22:10:00,
2013-03-15 18:15:00,46.9,32.0,29.70,NE,44,8.1,8.1,56,0.00,CLR,SKC,0.00,WeatherDisplay:10.37,2013-03-15 22:15:00,
2013-03-15 18:20:00,46.9,32.0,29.70,NE,46,6.9,6.9,56,0.00,CLR,SKC,0.00,WeatherDisplay:10.37,2013-03-15 22:20:00,
2013-03-15 18:25:00,46.8,31.9,29.70,NNE,19,8.1,8.1,56,0.00,CLR,SKC,0.00,WeatherDisplay:10.37,2013-03-15 22:25:00,
2013-03-15 18:30:00,46.7,32.3,29.70,North,360,12.6,12.6,57,0.00,CLR,SKC,0.00,WeatherDisplay:10.37,2013-03-15 22:30:00,
2013-03-15 18:35:00,46.6,32.2,29.70,North,350,12.6,12.6,57,0.00,CLR,SKC,0.00,WeatherDisplay:10.37,2013-03-15 22:35:00,
2013-03-15 18:40:00,46.6,32.2,29.71,NE,37,11.5,11.5,57,0.00,CLR,SKC,0.00,WeatherDisplay:10.37,2013-03-15 22:40:00,
2013-03-15 18:45:00,46.5,32.1,29.71,North,5,6.9,6.9,57,0.00,CLR,SKC,0.00,WeatherDisplay:10.37,2013-03-15 22:45:00,
2013-03-15 18:50:00,46.4,32.0,29.71,NE,46,11.5,11.5,57,0.00,CLR,SKC,0.00,WeatherDisplay:10.37,2013-03-15 22:50:00,
2013-03-15 18:55:00,46.3,31.9,29.71,NE,37,6.9,6.9,57,0.00,CLR,SKC,0.00,WeatherDisplay:10.37,2013-03-15 22:55:00,
2013-03-15 19:00:00,46.2,32.2,29.71,NE,44,5.8,5.8,58,0.00,CLR,SKC,0.00,WeatherDisplay:10.37,2013-03-15 23:00:00,
2013-03-15 19:05:00,46.1,32.6,29.72,NE,44,5.8,5.8,59,0.00,CLR,SKC,0.00,WeatherDisplay:10.37,2013-03-15 23:05:00,
2013-03-15 19:10:00,46.0,32.0,29.71,NNE,22,4.6,4.6,58,0.00,CLR,SKC,0.00,WeatherDisplay:10.37,2013-03-15 23:10:00,
2013-03-15 19:15:00,45.9,32.4,29.72,NNE,19,3.4,3.4,59,0.00,CLR,SKC,0.00,WeatherDisplay:10.37,2013-03-15 23:15:00,
2013-03-15 19:20:00,45.8,32.3,29.72,NNE,19,2.3,0.0,59,0.00,CLR,SKC,0.00,WeatherDisplay:10.37,2013-03-15 23:20:00,
2013-03-15 19:25:00,45.7,32.2,29.72,NNE,19,3.4,3.4,59,0.00,CLR,SKC,0.00,WeatherDisplay:10.37,2013-03-15 23:25:00,
2013-03-15 19:30:00,45.7,32.6,29.72,NE,38,4.0,4.0,60,0.00,CLR,SKC,0.00,WeatherDisplay:10.37,2013-03-15 23:30:00,
2013-03-15 19:35:00,45.7,32.2,29.73,NNE,27,6.9,6.9,59,0.00,CLR,SKC,0.00,WeatherDisplay:10.37,2013-03-15 23:35:00,
2013-03-15 19:40:00,45.7,32.2,29.73,NE,35,3.4,3.4,59,0.00,CLR,SKC,0.00,WeatherDisplay:10.37,2013-03-15 23:40:00,
2013-03-15 19:45:00,45.6,32.1,29.73,North,11,9.2,9.2,59,0.00,CLR,SKC,0.00,WeatherDisplay:10.37,2013-03-15 23:45:00,
2013-03-15 19:50:00,45.7,31.8,29.73,NE,38,6.9,6.9,58,0.00,CLR,SKC,0.00,WeatherDisplay:10.37,2013-03-15 23:50:00,
2013-03-15 19:55:00,45.7,31.8,29.73,NNE,31,5.8,5.8,58,0.00,CLR,SKC,0.00,WeatherDisplay:10.37,2013-03-15 23:55:00,
2013-03-15 20:00:00,45.6,31.7,29.73,NE,53,6.9,6.9,58,0.00,CLR,SKC,0.00,WeatherDisplay:10.37,2013-03-16 00:00:00,
2013-03-15 20:05:00,45.5,32.0,29.74,NE,40,5.8,5.8,59,0.00,CLR,SKC,0.00,WeatherDisplay:10.37,2013-03-16 00:05:00,
2013-03-15 20:10:00,45.5,32.0,29.74,NE,46,5.8,5.8,59,0.00,CLR,SKC,0.00,WeatherDisplay:10.37,2013-03-16 00:10:00,
2013-03-15 20:15:00,45.4,31.9,29.74,NE,40,4.6,4.6,59,0.00,CLR,SKC,0.00,WeatherDisplay:10.37,2013-03-16 00:15:00,
2013-03-15 20:20:00,45.4,31.9,29.74,NE,36,3.4,3.4,59,0.00,CLR,SKC,0.00,WeatherDisplay:10.37,2013-03-16 00:20:00,
2013-03-15 20:25:00,45.2,31.7,29.74,North,5,4.6,4.6,59,0.00,CLR,SKC,0.00,WeatherDisplay:10.37,2013-03-16 00:25:00,
2013-03-15 20:30:00,45.2,31.7,29.74,North,355,4.6,4.6,59,0.00,CLR,SKC,0.00,WeatherDisplay:10.37,2013-03-16 00:30:00,
2013-03-15 20:35:00,45.1,32.0,29.74,North,355,4.6,4.6,60,0.00,CLR,SKC,0.00,WeatherDisplay:10.37,2013-03-16 00:35:00,
2013-03-15 20:40:00,45.1,32.0,29.74,NE,40,5.0,5.0,60,0.00,CLR,SKC,0.00,WeatherDisplay:10.37,2013-03-16 00:40:00,
2013-03-15 20:45:00,45.1,32.0,29.74,North,355,3.4,3.4,60,0.00,CLR,SKC,0.00,WeatherDisplay:10.37,2013-03-16 00:45:00,
2013-03-15 20:50:00,45.1,32.0,29.74,NNE,27,4.6,4.6,60,0.00,CLR,SKC,0.00,WeatherDisplay:10.37,2013-03-16 00:50:00,
2013-03-15 20:55:00,45.1,32.0,29.74,NNE,32,5.8,5.8,60,0.00,CLR,SKC,0.00,WeatherDisplay:10.37,2013-03-16 00:55:00,
2013-03-15 21:00:00,45.1,32.0,29.74,ENE,63,4.0,4.0,60,0.00,CLR,SKC,0.00,WeatherDisplay:10.37,2013-03-16 01:00:00,
2013-03-15 21:05:00,45.1,32.0,29.74,North,5,5.8,5.8,60,0.00,CLR,SKC,0.00,WeatherDisplay:10.37,2013-03-16 01:05:00,
2013-03-15 21:10:00,45.1,32.0,29.75,North,355,5.8,5.8,60,0.00,CLR,SKC,0.00,WeatherDisplay:10.37,2013-03-16 01:10:00,
2013-03-15 21:15:00,45.1,32.0,29.75,NNE,31,5.8,5.8,60,0.00,CLR,SKC,0.00,WeatherDisplay:10.37,2013-03-16 01:15:00,
2013-03-15 21:20:00,45.1,32.0,29.75,NE,35,6.9,6.9,60,0.00,CLR,SKC,0.00,WeatherDisplay:10.37,2013-03-16 01:20:00,
2013-03-15 21:25:00,45.1,32.0,29.75,NNE,17,6.0,6.0,60,0.00,CLR,SKC,0.00,WeatherDisplay:10.37,2013-03-16 01:25:00,
2013-03-15 21:30:00,45.0,32.3,29.75,NE,35,3.4,3.4,61,0.00,CLR,SKC,0.00,WeatherDisplay:10.37,2013-03-16 01:30:00,
2013-03-15 21:35:00,44.9,32.3,29.75,NNE,16,6.9,6.9,61,0.00,CLR,SKC,0.00,WeatherDisplay:10.37,2013-03-16 01:35:00,
2013-03-15 21:40:00,44.8,32.2,29.75,NE,43,4.6,4.6,61,0.00,CLR,SKC,0.00,WeatherDisplay:10.37,2013-03-16 01:40:00,
2013-03-15 21:45:00,44.8,32.2,29.75,NE,36,8.1,8.1,61,0.00,CLR,SKC,0.00,WeatherDisplay:10.37,2013-03-16 01:45:00,
2013-03-15 21:50:00,44.8,32.2,29.75,NE,36,11.5,11.5,61,0.00,CLR,SKC,0.00,WeatherDisplay:10.37,2013-03-16 01:50:00,
2013-03-15 21:55:00,44.7,32.1,29.75,NE,44,5.8,5.8,61,0.00,CLR,SKC,0.00,WeatherDisplay:10.37,2013-03-16 01:55:00,
2013-03-15 22:00:00,44.6,32.4,29.75,NE,37,8.1,8.1,62,0.00,CLR,SKC,0.00,WeatherDisplay:10.37,2013-03-16 02:00:00,
2013-03-15 22:05:00,44.4,32.2,29.75,NE,41,4.6,4.6,62,0.00,CLR,SKC,0.00,WeatherDisplay:10.37,2013-03-16 02:05:00,
2013-03-15 22:10:00,44.2,32.0,29.75,NE,38,6.9,6.9,62,0.00,CLR,SKC,0.00,WeatherDisplay:10.37,2013-03-16 02:10:00,
2013-03-15 22:15:00,44.0,32.2,29.75,NNE,16,4.0,4.0,63,0.00,CLR,SKC,0.00,WeatherDisplay:10.37,2013-03-16 02:15:00,
2013-03-15 22:20:00,43.8,32.0,29.76,North,9,4.6,4.6,63,0.00,CLR,SKC,0.00,WeatherDisplay:10.37,2013-03-16 02:20:00,
2013-03-15 22:25:00,43.5,32.1,29.76,NNE,30,7.0,7.0,64,0.00,CLR,SKC,0.00,WeatherDisplay:10.37,2013-03-16 02:25:00,
2013-03-15 22:30:00,43.4,32.0,29.75,North,5,9.2,9.2,64,0.00,CLR,SKC,0.00,WeatherDisplay:10.37,2013-03-16 02:30:00,
2013-03-15 22:35:00,43.3,32.3,29.76,NNE,19,8.0,8.0,65,0.00,CLR,SKC,0.00,WeatherDisplay:10.37,2013-03-16 02:35:00,
2013-03-15 22:40:00,43.2,32.2,29.76,North,9,9.2,9.2,65,0.00,CLR,SKC,0.00,WeatherDisplay:10.37,2013-03-16 02:40:00,
2013-03-15 22:45:00,43.0,32.0,29.76,NE,44,8.1,8.1,65,0.00,CLR,SKC,0.00,WeatherDisplay:10.37,2013-03-16 02:45:00,
2013-03-15 22:50:00,42.9,32.3,29.76,ENE,58,5.8,5.8,66,0.00,CLR,SKC,0.00,WeatherDisplay:10.37,2013-03-16 02:50:00,
2013-03-15 22:55:00,42.7,32.1,29.76,NE,36,8.1,8.1,66,0.00,CLR,SKC,0.00,WeatherDisplay:10.37,2013-03-16 02:55:00,
2013-03-15 23:00:00,42.6,32.4,29.76,NNE,24,2.0,2.0,67,0.00,CLR,SKC,0.00,WeatherDisplay:10.37,2013-03-16 03:00:00,
2013-03-15 23:05:00,42.5,32.3,29.76,NNE,24,2.3,2.3,67,0.00,CLR,SKC,0.00,WeatherDisplay:10.37,2013-03-16 03:05:00,
2013-03-15 23:10:00,42.3,32.5,29.76,NNE,24,2.0,2.0,68,0.00,CLR,SKC,0.00,WeatherDisplay:10.37,2013-03-16 03:10:00,
2013-03-15 23:15:00,42.2,32.4,29.77,NNE,18,3.4,3.4,68,0.00,CLR,SKC,0.00,WeatherDisplay:10.37,2013-03-16 03:15:00,
2013-03-15 23:20:00,42.1,31.9,29.77,ENE,59,8.1,8.1,67,0.00,CLR,SKC,0.00,WeatherDisplay:10.37,2013-03-16 03:20:00,
2013-03-15 23:25:00,42.0,31.8,29.77,NNE,13,7.0,7.0,67,0.00,CLR,SKC,0.00,WeatherDisplay:10.37,2013-03-16 03:25:00,
2013-03-15 23:30:00,42.0,31.8,29.77,NE,46,8.1,8.1,67,0.00,CLR,SKC,0.00,WeatherDisplay:10.37,2013-03-16 03:30:00,
2013-03-15 23:35:00,41.9,31.7,29.77,NNE,28,4.0,4.0,67,0.00,CLR,SKC,0.00,WeatherDisplay:10.37,2013-03-16 03:35:00,
2013-03-15 23:40:00,41.7,31.5,29.76,North,5,6.9,6.9,67,0.00,CLR,SKC,0.00,WeatherDisplay:10.37,2013-03-16 03:40:00,
2013-03-15 23:45:00,41.6,31.4,29.76,NE,37,5.0,5.0,67,0.00,CLR,SKC,0.00,WeatherDisplay:10.37,2013-03-16 03:45:00,
2013-03-15 23:50:00,41.4,31.3,29.76,NE,42,6.9,6.9,67,0.00,CLR,SKC,0.00,WeatherDisplay:10.37,2013-03-16 03:50:00,
2013-03-15 23:55:00,41.4,31.3,29.76,NE,49,3.4,3.4,67,0.00,CLR,SKC,0.00,WeatherDisplay:10.37,2013-03-16 03:55:00,